Simultaneous Nadir Overpasses (SNOs) Predictions

Prediction of SNOs between METOP-A and TERRA Satellite Orbit:

Table of predicted SNOs for the next 14.0 days since TLE Epoch: 10/5/2019
Index Date (METOP-A) Time (METOP-A) Lat,Lon (METOP-A) SZA (METOP-A ) Date (TERRA) Time (TERRA) Lat,Lon (TERRA) SZA (TERRA ) Distance(km) Time Diff (sec)
1 10/06/2019 09:20:08 -81.45, -90.44 90.19 10/06/2019 09:21:05 -81.44, -90.53 90.17 1.47 57
2 10/06/2019 10:10:48 81.45, 77.22 89.87 10/06/2019 10:10:31 81.45, 77.28 89.87 1.17 17
3 10/09/2019 04:54:32 -81.45, -23.98 89.09 10/09/2019 04:55:20 -81.44, -24.12 89.08 2.46 48
4 10/09/2019 05:45:12 81.44, 143.68 90.97 10/09/2019 05:44:46 81.45, 143.65 90.95 0.74 26
5 10/12/2019 00:28:56 -81.45, 42.48 88.00 10/12/2019 00:29:34 -81.46, 42.63 87.96 2.69 38
6 10/12/2019 01:19:36 81.44,-149.88 92.05 10/12/2019 01:19:01 81.44,-150.03 92.02 2.47 35
7 10/14/2019 20:03:19 -81.45, 108.93 86.93 10/14/2019 20:03:48 -81.45, 108.94 86.91 0.70 29
8 10/14/2019 20:54:00 81.45, -83.84 93.08 10/14/2019 20:53:15 81.44, -83.74 93.06 1.92 45
9 10/17/2019 15:37:43 -81.44, 175.37 85.88 10/17/2019 15:38:03 -81.44, 175.21 85.89 2.71 20




NCC Satellite Simultaneous Nadir Overpasses (SNOs) Prediction Service
